This is the latest recevied weather packets stored in our database for station/object IZ1UQG-1. If no packets are shown the sender has not sent any weather packets the latest 10 day(s).
| Time | Temp. | Humidity | Pressure | Rain* | Wind** | Luminosity | Snow |
|---|---|---|---|---|---|---|---|
| 1777504747 | 17.78° C | 67% | 1019.1 hPa | 31.24 mm | - | - | - |
| 1777504447 | 17.78° C | 67% | 1019.1 hPa | 44.7 mm | - | - | - |
| 1777504147 | 17.78° C | 68% | 1019 hPa | 14.73 mm | - | - | - |
| 1777503847 | 17.78° C | 68% | 1019 hPa | 44.7 mm | - | - | - |
| 1777503547 | 17.78° C | 68% | 1018.9 hPa | 15.75 mm | - | - | - |
| 1777503247 | 17.78° C | 68% | 1018.7 hPa | 64.01 mm | - | - | - |
| 1777502947 | 17.78° C | 68% | 1018.7 hPa | 23.11 mm | - | - | - |
| 1777502647 | 17.78° C | 68% | 1018.5 hPa | 14.22 mm | - | - | - |
| 1777502347 | 17.78° C | 68% | 1018.5 hPa | 15.24 mm | - | - | - |
| 1777502047 | 18.33° C | 68% | 1018.5 hPa | 59.69 mm | - | - | - |
| 1777501747 | 18.33° C | 68% | 1018.3 hPa | 34.8 mm | - | - | - |
| 1777501447 | 18.33° C | 68% | 1018.2 hPa | 26.67 mm | - | - | - |
| 1777501147 | 18.33° C | 68% | 1018.2 hPa | 15.24 mm | - | - | - |
| 1777500847 | 18.33° C | 68% | 1018.1 hPa | 50.55 mm | - | - | - |
| 1777500547 | 18.33° C | 68% | 1017.9 hPa | 20.32 mm | - | - | - |
| 1777500247 | 18.33° C | 68% | 1018 hPa | 23.11 mm | - | - | - |
| 1777499947 | 18.33° C | 68% | 1017.9 hPa | 32.26 mm | - | - | - |
| 1777499647 | 18.33° C | 67% | 1017.8 hPa | 62.48 mm | - | - | - |
| 1777499347 | 18.33° C | 67% | 1017.7 hPa | 46.23 mm | - | - | - |
| 1777499047 | 18.33° C | 67% | 1017.6 hPa | 27.69 mm | - | - | - |
| 1777498747 | 18.33° C | 67% | 1017.5 hPa | 15.75 mm | - | - | - |
| 1777498447 | 18.89° C | 67% | 1017.6 hPa | 46.74 mm | - | - | - |
| 1777498147 | 18.89° C | 67% | 1017.5 hPa | 57.66 mm | - | - | - |
| 1777497847 | 18.89° C | 67% | 1017.4 hPa | 39.62 mm | - | - | - |
| 1777497547 | 18.89° C | 67% | 1017.4 hPa | 33.78 mm | - | - | - |
* Rain latest hour (hover to see other rain measurements)
** Current wind speed in m/s (hover to see current wind gust speed)